GFSGL_con_mlcape_081.txt.gz
CAPE
1580 758 1106 1711 1904 1329 1066 836 455 300 109 0 0 0 44 21 32 15 206 211 180 44 119 117 166 275 254 259 254 217 168 45 2 2 2 0 1 2 3 1 0 1 1
624 1122 1998 1984 1734 1058 685 648 504 308 170 0 0 0 79 40 102 30 46 124 49 119 172 214 244 298 277 314 289 197 180 11 0 0 2 0 1 1 0 0 0 0 1
1773 1877 2214 1969 1528 1410 938 875 622 376 299 280 164 0 0 0 0 28 150 102 76 46 61 42 58 234 311 299 258 157 42 1 0 0 1 1 0 0 2 1 0 0 0
1780 2123 1887 1763 1496 1404 1047 868 824 557 384 21 6 0 0 0 12 47 54 49 36 42 39 31 19 53 157 264 206 67 0 0 0 1 1 1 0 0 0 1 2 0 0
2034 2070 1892 1521 1537 1396 1179 1024 559 333 286 8 7 0 0 0 9 20 127 82 84 2 0 0 0 0 18 190 128 20 0 0 0 1 0 1 1 1 1 1 2 0 0
2432 2027 2020 1483 1448 1263 1047 778 566 336 254 77 36 3 0 0 0 0 1 0 0 13 0 0 0 0 0 22 134 43 0 0 0 0 0 0 1 2 0 0 0 1 2
2534 2051 1903 1563 1407 1297 1014 714 575 480 285 188 115 57 14 0 0 0 8 3 0 0 0 0 0 0 0 0 0 0 28 0 0 0 0 0 0 0 1 0 0 0 0
2666 2380 2192 1734 1439 1356 1123 869 679 522 447 183 153 111 65 0 0 0 0 1 26 0 0 0 0 3 2 0 0 0 0 0 1 1 0 0 0 0 0 0 0 0 0
2481 1335 569 723 1341 1444 1342 1011 872 643 618 408 316 209 171 27 0 0 0 0 0 0 6 4 0 6 0 0 23 0 0 0 0 0 0 0 0 0 0 0 0 0 0
834 162 0 0 1 0 3 1220 1015 868 719 652 398 330 279 118 0 0 0 0 0 0 0 15 6 0 0 0 29 11 0 0 0 0 0 0 0 0 0 0 0 0 0
0 0 0 0 0 0 0 86 1129 969 888 797 621 399 414 359 77 0 0 0 0 34 24 0 0 0 0 0 0 4 5 0 0 0 0 0 0 0 0 0 0 0 0
1 0 0 0 0 0 0 0 1098 1068 1006 948 738 586 573 573 395 45 0 0 0 1 100 120 53 0 0 0 0 0 0 0 0 0 0 0 0 0 0 0 0 0 0
218 106 0 0 1 2 0 724 1304 1235 1070 964 1038 841 907 831 468 119 30 0 0 0 4 73 3 0 0 0 0 0 0 0 0 0 0 0 0 0 0 0 0 0 0
480 411 166 2 0 289 937 1543 1478 1316 1210 1118 927 534 316 359 285 121 43 0 0 0 0 0 0 0 0 0 0 0 0 0 0 0 0 0 0 0 1 0 1 0 0
213 538 717 371 320 611 389 491 838 990 947 671 490 300 167 205 14 48 83 42 6 24 23 0 0 0 0 0 0 0 0 0 0 0 0 0 0 0 0 3 17 8 0
0 2 37 121 383 649 372 299 24 13 70 347 245 151 34 33 0 0 0 0 0 2 6 64 88 43 18 4 1 0 0 0 0 0 0 0 0 0 0 0 0 4 8
0 0 0 0 0 147 386 209 168 2 0 0 16 1 1 0 0 0 0 0 0 0 0 4 18 18 10 16 2 1 1 6 0 0 0 0 0 0 0 0 0 0 0
0 0 0 0 0 0 1 246 38 0 0 0 0 0 0 0 0 0 0 0 0 0 0 16 1 0 3 1 1 0 1 1 0 0 0 1 0 0 0 0 1 1 0
0 0 0 0 0 0 0 0 0 1 2 0 2 0 0 0 0 0 0 0 15 37 29 55 17 0 0 0 0 0 0 0 0 0 0 0 0 0 0 0 0 0 1
1 0 0 0 0 0 0 0 0 0 0 9 1 0 0 0 0 0 0 7 24 44 35 27 0 0 0 0 0 0 0 0 0 0 0 0 0 0 0 0 0 0 0
8 2 5 0 0 0 0 0 0 0 0 4 0 0 3 0 21 9 33 34 19 37 51 25 0 0 0 0 0 0 0 0 0 0 0 0 0 0 0 0 0 0 0
0 0 0 0 0 9 1 0 0 0 0 0 21 4 0 1 0 11 0 0 0 0 0 0 0 0 0 0 0 0 0 0 0 0 0 1 3 0 0 0 0 0 0
0 0 0 0 0 0 10 39 31 5 17 23 28 4 0 0 0 0 0 0 0 0 0 0 0 0 0 0 0 0 0 0 0 0 0 0 0 0 0 0 1 0 0
0 0 0 0 18 38 45 32 52 24 14 5 3 0 0 0 0 0 0 0 0 0 0 0 0 0 0 0 0 0 0 0 0 0 0 0 0 0 0 0 1 1 1
17 19 34 27 30 43 18 5 4 0 0 0 0 0 0 0 0 0 0 0 0 0 0 0 0 0 0 0 0 0 0 0 0 0 0 0 0 0 0 0 0 0 0
1 2 0 3 9 6 0 0 0 0 0 0 0 0 0 0 0 0 0 0 0 0 0 0 0 0 0 0 0 0 0 0 0 0 0 0 0 0 0 0 0 0 0

GFSGL_con_mlcape_087.txt.gz
CAPE
474 1154 780 120 58 139 1008 1425 1080 816 548 340 197 148 32 0 10 50 64 73 115 143 174 143 114 161 197 170 191 279 351 124 104 2 1 1 1 1 1 0 0 0 0
1297 1372 774 1326 1653 1749 1653 1239 936 693 364 235 106 76 23 37 13 31 69 184 165 126 70 82 68 128 131 132 115 166 201 81 46 22 1 1 1 0 1 1 1 0 0
1496 1543 746 1739 1681 1734 1311 1038 839 570 297 62 0 0 22 64 30 26 8 40 55 74 94 143 135 120 130 111 126 149 91 0 1 8 0 1 1 1 1 1 1 0 1
1445 1310 1077 1910 1634 1332 1219 927 755 586 404 149 33 20 0 14 19 39 18 16 44 56 35 19 10 58 83 98 97 46 0 0 1 0 2 1 0 1 1 1 2 1 1
1366 832 1565 1806 1701 1452 1225 1092 906 603 409 290 238 126 0 0 0 37 67 78 18 0 0 0 0 0 2 111 37 0 0 0 0 1 1 1 1 1 1 2 2 1 0
1641 821 1167 1754 1598 1555 1385 1274 1013 644 526 413 214 111 0 0 0 0 80 56 0 0 0 0 0 0 0 157 42 0 0 0 0 0 1 0 0 0 1 1 1 1 1
1805 1582 1358 1675 1710 1508 1443 1353 1139 916 562 365 232 125 11 0 0 0 0 81 72 14 12 0 0 0 0 35 36 0 0 0 0 0 0 0 0 0 1 2 0 0 0
2125 1942 1811 1837 1766 1467 1328 1301 1116 986 615 368 221 163 68 59 11 0 0 0 0 0 6 0 0 0 0 0 40 1 0 0 0 0 0 0 0 0 0 0 0 0 0
2089 2045 2051 1740 1480 1311 1165 1044 973 861 649 495 365 230 130 67 32 21 0 0 0 0 0 0 0 0 0 0 0 0 0 0 0 0 0 0 0 0 0 0 1 0 0
1981 1699 1176 1051 1119 1107 956 875 768 385 49 188 465 367 223 188 48 29 0 0 0 0 0 0 0 0 0 0 0 0 0 0 0 0 0 0 0 0 0 0 0 0 0
283 209 142 141 276 308 237 203 203 62 0 0 0 86 211 201 133 26 0 0 0 0 0 19 0 0 0 0 0 0 0 0 0 0 0 0 0 0 0 0 0 0 0
6 9 0 0 0 0 0 0 1 3 0 0 0 0 1 153 180 3 2 0 0 0 0 0 1 0 0 0 0 0 0 0 0 0 0 0 0 0 0 0 0 0 0
4 4 14 68 82 5 0 0 0 0 0 4 2 12 49 96 129 71 0 0 0 0 0 0 8 0 0 0 0 0 0 0 0 0 0 0 0 0 0 0 0 0 0
0 0 0 0 0 1 9 0 79 79 93 1 3 44 212 202 150 5 0 0 0 0 2 15 1 2 0 0 0 0 0 0 0 0 0 0 0 4 0 0 1 0 0
0 0 0 0 1 0 2 1 0 1 98 66 0 0 0 47 72 15 2 0 0 3 11 3 0 0 0 0 0 0 0 0 0 0 0 0 0 0 0 1 2 0 0
0 0 0 0 0 0 0 0 0 2 1 0 0 37 141 147 44 4 0 7 27 0 5 4 0 0 0 0 0 0 0 0 0 0 0 0 0 0 0 0 0 0 0
0 0 0 0 0 0 0 1 0 0 0 1 1 0 23 1 0 0 24 21 2 0 14 1 4 0 0 0 0 0 0 0 0 0 0 0 0 0 0 0 0 0 0
0 0 0 0 0 0 0 0 2 0 0 0 0 0 0 0 0 0 1 0 0 1 3 2 1 1 0 0 5 15 10 4 1 0 0 0 1 1 1 1 0 1 1
0 0 0 0 0 0 0 0 1 2 2 2 2 0 0 1 3 1 0 0 0 1 0 2 0 5 13 21 5 2 0 0 0 0 0 0 0 0 0 0 0 0 0
0 0 0 0 0 2 0 0 5 0 0 0 0 0 0 0 0 0 0 0 0 0 7 11 17 15 15 2 0 0 0 0 0 0 0 0 0 0 0 0 0 0 0
0 0 0 0 0 0 1 0 0 4 0 0 0 0 0 0 0 0 0 0 0 1 0 1 0 0 0 0 0 0 0 0 0 0 0 0 0 0 0 0 0 0 1
0 0 0 0 0 0 0 5 1 0 6 0 1 0 0 6 4 0 0 0 0 0 0 0 0 0 0 0 0 0 0 0 0 0 0 0 0 0 0 0 0 0 0
0 0 0 0 0 0 2 1 0 0 0 3 17 0 0 0 1 2 1 0 0 0 0 0 0 0 0 0 0 0 0 0 0 0 0 0 0 0 0 0 0 0 0
0 0 0 0 0 0 9 41 25 13 22 12 1 0 0 0 0 0 0 0 0 0 0 0 0 0 0 0 0 0 0 0 0 0 0 0 0 0 0 0 0 0 0
0 0 0 0 0 0 5 11 12 0 4 3 0 0 0 0 0 0 0 0 0 0 0 0 0 0 0 0 0 0 0 0 0 0 0 0 0 0 0 0 0 0 0
0 0 0 0 0 0 0 0 0 0 1 0 0 0 0 0 0 0 0 0 0 0 0 0 0 0 0 0 0 0 0 0 0 0 0 0 0 0 0 0 0 0 0

GFSGL_con_mlcape_090.txt.gz
CAPE
1893 1565 741 187 112 41 0 198 1207 948 664 505 324 224 92 42 7 3 6 11 41 81 123 151 162 124 142 181 215 206 235 180 181 14 1 1 1 1 2 1 0 0 0
1082 618 357 153 133 56 170 1219 1068 921 627 422 255 210 135 23 0 0 13 48 51 84 124 129 84 78 66 78 91 103 150 151 98 49 1 1 0 1 1 1 1 0 0
673 836 803 435 886 1228 1461 1411 1002 787 510 308 202 161 81 65 61 25 19 15 106 118 102 45 76 97 136 107 99 80 106 20 1 8 0 1 1 0 2 2 2 2 2
1173 1152 841 940 1109 1435 1573 1241 904 679 466 226 106 48 18 29 91 36 5 0 0 0 50 79 73 27 18 29 37 3 1 1 0 0 1 2 1 1 1 1 2 1 2
1174 1323 943 585 1399 1542 1365 1120 862 684 495 380 133 90 42 36 22 18 33 15 4 0 0 3 0 1 0 0 44 5 0 0 0 0 0 1 1 1 1 1 1 2 2
1116 1240 1029 1050 1682 1542 1291 1126 932 816 583 405 222 224 119 22 25 15 28 31 53 11 0 0 0 0 0 0 56 0 0 0 0 0 1 1 1 1 2 1 1 2 0
1356 1151 785 1391 1471 1536 1369 1217 1138 980 626 477 407 306 227 70 19 12 34 57 38 1 0 0 0 0 0 0 0 0 0 0 0 0 0 0 0 0 1 1 1 0 0
1411 1488 1131 1165 1387 1488 1427 1306 1264 1137 889 640 481 289 141 70 5 0 27 69 60 30 0 0 0 0 0 0 0 0 0 0 0 0 0 0 0 0 0 0 0 0 0
1375 1436 1419 1341 1397 1506 1482 1336 1160 1067 812 664 479 321 185 131 17 7 0 0 16 1 0 0 0 0 0 0 0 0 0 0 0 0 0 0 0 0 0 0 1 0 0
995 908 698 691 777 914 800 643 452 293 242 104 134 203 265 214 86 0 0 0 8 21 0 0 0 0 0 0 0 0 0 0 0 0 0 0 0 0 0 0 0 1 0
3 2 2 0 49 119 156 110 71 17 0 9 26 18 0 1 167 55 0 20 45 12 10 7 1 0 0 0 0 0 0 0 0 0 0 0 0 0 0 0 0 0 0
19 48 56 69 87 58 14 0 0 0 0 0 0 0 0 0 0 0 9 6 20 21 0 4 19 0 0 0 0 0 0 0 0 0 0 0 0 0 0 0 0 0 0
0 0 0 0 0 0 1 2 0 0 0 0 1 0 0 0 1 1 6 0 5 3 0 0 0 0 0 0 0 0 0 0 0 0 0 0 0 0 0 0 0 0 0
0 0 0 0 0 0 0 0 3 2 3 6 0 0 0 0 0 0 0 0 0 0 0 0 0 0 0 0 0 0 0 0 0 9 7 1 1 1 0 0 1 2 3
0 0 0 0 0 0 0 0 0 0 0 0 1 0 0 3 7 3 0 0 0 0 0 0 0 0 0 0 0 0 0 0 0 0 0 0 0 0 0 0 0 1 1
0 0 0 0 0 0 0 1 1 0 0 0 1 0 0 2 5 0 0 0 0 0 1 0 1 0 0 4 0 0 0 0 0 0 0 0 0 0 0 0 0 0 0
0 0 0 0 0 0 0 2 2 0 0 1 0 0 0 0 0 0 0 0 0 0 48 20 7 0 0 0 1 1 0 0 0 0 0 0 0 0 0 0 0 0 0
0 0 0 0 0 0 0 1 1 0 0 0 1 0 0 0 0 0 0 0 0 0 9 11 6 12 0 0 2 2 0 0 1 1 1 5 0 0 12 5 0 0 0
0 0 0 0 0 0 0 0 0 0 0 0 0 0 0 0 0 0 0 1 3 0 2 1 0 0 1 1 1 0 0 2 0 0 0 0 0 0 2 0 0 0 0
0 0 0 0 0 0 0 0 0 0 0 0 0 0 0 0 0 0 0 1 0 1 0 0 0 0 0 0 0 0 0 0 0 0 0 0 0 0 0 0 0 0 0
0 0 0 0 0 0 0 0 0 0 0 0 0 0 0 0 0 0 1 3 1 0 0 0 0 0 0 0 0 0 0 0 0 0 0 0 0 0 0 0 0 0 0
0 0 0 0 0 0 0 0 0 0 0 0 1 0 0 0 0 0 0 0 0 0 1 0 0 1 0 0 0 0 0 0 0 0 0 0 0 0 0 0 0 0 0
0 0 0 0 0 0 0 0 0 8 4 8 0 0 0 1 2 1 0 0 0 0 0 0 0 0 0 0 0 0 0 0 0 0 0 0 0 0 0 0 0 0 0
0 0 0 0 0 0 0 0 15 12 13 4 0 1 1 0 0 0 0 0 0 0 0 0 0 0 0 0 0 0 0 0 0 0 0 0 0 0 0 0 0 0 0
0 0 0 0 0 0 0 1 5 1 2 6 0 0 0 0 0 0 0 0 0 0 0 0 0 0 0 0 0 0 0 0 0 0 0 0 0 0 0 0 0 0 0
0 0 0 0 0 0 0 0 0 1 2 0 0 0 0 0 0 0 0 0 0 0 0 0 0 0 0 0 0 0 0 0 0 0 0 0 0 0 0 0 0 0 0

GFSGL_con_mlcape_093.txt.gz
CAPE
2135 2034 2089 2027 1506 557 269 388 765 1576 1328 1125 1094 916 662 563 564 558 383 224 193 66 12 20 111 568 449 553 559 452 361 442 257 324 76 4 1 2 3 3 3 3 2
2168 2278 2113 1686 787 284 108 104 1573 1614 1268 1208 982 740 612 561 553 389 205 128 114 96 245 399 456 573 511 567 527 425 310 158 261 249 3 2 1 2 1 1 2 0 2
2176 2175 1640 821 519 300 228 704 1677 1451 1228 990 836 712 621 440 302 368 426 405 398 396 419 452 379 334 406 369 414 366 265 260 121 119 0 2 1 1 2 2 2 3 2
2081 1650 1235 758 632 1023 1646 2022 1817 1366 1127 853 726 719 634 537 517 480 412 401 475 485 455 374 325 412 447 471 353 224 142 22 1 2 1 1 1 2 2 1 2 3 3
1106 1385 1460 1263 1348 1938 2064 2104 1721 1273 1041 899 654 521 465 360 383 425 315 224 170 176 308 357 384 307 189 249 229 132 72 4 1 2 2 2 1 1 1 2 3 3 3
1661 1974 1644 1342 1486 1892 2101 1913 1668 1348 1169 995 795 516 348 196 101 115 295 306 278 196 234 259 186 0 0 0 0 78 73 25 2 1 2 1 2 2 4 4 2 2 0
1568 1860 2094 1525 1356 2201 2034 1822 1775 1502 1398 1159 889 690 544 434 6 11 30 249 265 223 233 184 104 0 0 1 25 0 0 0 3 2 0 1 2 2 2 3 1 0 0
48 1749 1802 1628 1627 2060 2026 1981 1948 1793 1620 1383 1061 926 817 737 116 0 0 60 216 264 200 169 118 2 0 0 85 0 15 1 0 0 7 6 0 0 0 0 0 0 0
0 1226 1456 1352 1483 1747 1829 1899 1923 1748 1627 1475 1254 1161 969 834 144 0 0 3 127 235 256 233 151 78 0 0 12 4 1 4 0 0 0 0 0 0 2 2 1 1 2
269 313 296 653 878 981 902 816 683 806 750 606 613 708 967 874 571 29 0 0 9 51 147 97 10 71 0 0 19 2 0 1 5 1 0 0 0 0 0 1 1 2 3
8 8 98 27 43 68 169 269 295 206 130 96 107 70 69 41 96 10 0 75 40 46 24 80 54 0 0 0 0 55 0 0 1 10 14 12 5 5 1 7 7 3 1
0 2 29 49 73 143 179 191 108 49 64 83 24 0 10 137 57 0 0 0 12 84 110 126 100 4 0 0 0 0 0 0 6 10 11 2 3 4 8 8 10 10 11
0 0 0 0 0 1 1 0 6 1 1 1 3 5 0 0 25 0 0 0 0 19 210 209 163 1 0 0 0 0 0 8 9 28 5 7 0 0 5 8 8 9 14
0 0 0 0 0 0 0 2 3 9 6 16 8 1 2 3 8 38 5 0 0 0 51 31 11 0 0 1 0 0 5 67 16 21 42 31 6 6 4 9 8 5 8
0 0 0 0 0 0 0 1 1 1 0 1 1 2 2 2 32 6 0 0 0 3 2 0 0 0 0 4 5 1 0 2 13 52 106 88 0 3 11 18 29 8 11
0 0 0 0 0 0 0 2 0 0 0 0 2 1 1 0 0 0 0 0 0 0 4 4 5 2 0 0 0 0 0 0 0 0 0 0 0 0 0 2 0 1 2
0 0 0 0 0 0 0 0 0 0 0 0 0 0 0 0 0 0 0 0 1 0 3 4 4 3 3 0 0 0 0 0 0 0 0 0 0 0 0 0 0 0 0
0 0 0 0 0 0 0 1 5 2 1 3 2 0 0 0 0 0 0 0 0 0 4 6 9 3 1 0 0 0 2 1 3 1 1 1 0 2 2 2 4 0 14
0 0 0 0 0 0 0 0 4 6 3 4 3 2 2 0 0 0 2 0 0 0 1 26 43 40 0 0 2 2 2 3 1 0 0 1 1 1 1 1 0 0 1
0 0 0 0 0 0 0 0 0 17 17 0 1 1 1 6 2 1 1 3 3 1 1 1 1 0 0 0 0 0 1 0 0 0 0 0 0 0 1 0 1 0 0
0 0 0 0 0 0 0 0 0 7 30 29 5 0 0 2 1 0 1 1 1 1 0 0 0 0 0 0 0 0 0 0 0 0 0 1 0 1 1 1 2 3 3
0 0 0 3 1 0 0 0 0 26 73 16 7 2 1 2 1 1 1 1 0 0 1 0 0 0 0 0 0 0 1 0 0 1 1 1 1 2 2 3 4 4 0
0 0 5 7 4 0 3 24 66 117 69 47 6 2 1 0 0 0 0 0 0 0 0 0 0 0 0 0 0 0 0 0 0 0 2 4 2 0 1 0 1 0 0
2 0 4 6 14 1 1 0 2 52 97 107 9 2 2 1 1 0 0 0 0 0 0 0 0 0 0 0 0 0 0 0 0 0 0 0 0 0 0 0 0 0 0
7 13 7 1 0 1 3 2 2 4 34 64 10 0 0 0 2 2 2 1 4 0 0 0 0 0 0 0 0 0 0 0 0 0 0 0 0 0 0 0 0 0 0
10 20 17 13 6 3 1 2 1 1 4 31 11 2 0 0 0 0 0 0 0 0 0 0 0 0 0 0 0 0 0 0 0 0 0 0 0 0 0 0 0 0 0

GFSGL_con_mlcape_099.txt.gz
CAPE
3219 3290 3501 3466 3530 3422 3191 3232 1894 1231 1444 1645 1668 1523 1292 1638 1580 1258 1244 1171 975 844 821 728 388 284 286 746 702 351 324 324 242 225 332 630 248 136 136 71 16 9 1
3264 3421 3512 3501 3450 3360 3311 3083 1909 1374 1717 1919 1857 1361 1054 914 1256 1421 1097 960 899 939 716 610 710 433 266 299 209 231 411 558 669 377 613 498 461 185 38 4 3 3 1
3334 3231 3334 3404 3380 3424 3267 2491 1535 1427 1851 2034 1636 1285 959 778 856 1055 1122 917 753 837 787 761 467 438 489 484 514 534 564 640 630 575 491 225 0 0 1 2 2 0 0
3054 3010 3264 3201 3287 3278 2631 1682 1324 1774 2065 1833 1434 1242 1008 852 778 854 929 861 737 694 755 781 805 766 540 523 576 604 554 595 592 499 430 85 1 1 1 1 2 2 2
3029 2934 3210 3337 3030 2312 1740 1278 952 1551 2029 1669 1414 1221 1040 865 737 727 805 867 967 851 738 555 684 726 499 624 651 490 493 550 383 415 407 44 0 0 0 2 2 2 4
1512 1797 1510 1705 1778 1571 1534 1499 2114 2345 1900 1586 1342 1152 1021 721 421 424 647 676 622 818 539 402 334 362 410 275 229 173 190 498 435 282 135 17 0 1 3 2 3 4 2
441 17 36 306 59 1735 2242 2188 2321 2290 1875 1672 1446 1206 1021 881 261 271 242 407 581 411 379 370 293 138 233 247 129 0 0 0 124 501 273 247 157 1 1 3 3 3 1
985 1070 33 272 1081 2263 2319 2217 2509 2246 2074 1882 1728 1508 1336 1164 336 261 157 282 445 480 415 432 501 285 343 323 168 76 0 0 19 110 199 294 417 96 1 1 1 0 0
600 601 788 1334 1698 1970 2222 2367 2387 2243 2216 2061 1969 1851 1675 1515 501 342 274 301 354 430 396 280 292 438 440 109 104 42 143 81 43 5 1 17 16 126 3 4 2 1 3
68 49 147 341 1426 1714 1666 1773 1936 2027 2225 2112 2118 2000 1754 1626 916 534 429 517 405 429 519 505 194 194 292 86 117 49 164 239 64 45 0 0 0 0 2 0 1 1 2
9 4 0 0 35 237 732 1172 1175 1699 1934 1927 1966 1928 1710 1490 1343 762 486 777 755 569 609 501 464 187 120 12 89 208 114 268 187 114 102 15 6 8 5 6 15 4 2
0 0 0 0 1 0 0 0 194 754 837 879 1208 948 1070 1181 968 492 379 200 556 601 532 553 488 178 24 28 9 96 67 163 237 194 108 73 14 11 9 9 11 20 17
0 0 0 1 5 2 3 0 58 311 266 268 190 136 137 153 231 163 37 19 2 1 27 63 6 0 0 0 0 21 1 93 208 170 176 103 77 35 22 14 11 37 28
0 0 4 17 48 87 20 29 37 106 54 62 41 28 0 1 5 11 0 0 2 0 2 7 2 0 0 0 0 0 15 46 162 138 182 204 163 133 48 79 34 33 16
13 9 3 7 45 94 103 39 63 23 1 11 0 0 0 0 0 0 0 0 0 0 0 0 1 2 1 2 2 3 0 34 119 144 164 138 173 173 86 54 37 4 9
42 2 0 2 13 52 53 43 0 0 0 0 0 0 0 0 0 0 0 0 0 0 0 0 1 1 0 3 7 16 3 13 107 200 222 263 255 196 93 28 22 13 11
10 7 0 0 6 2 5 8 36 0 0 0 0 0 0 0 0 0 0 0 0 0 0 3 4 1 2 1 10 23 31 29 38 68 80 76 54 81 37 4 7 11 34
4 0 0 3 20 10 8 0 0 16 23 18 0 0 0 0 0 0 0 0 0 0 2 8 27 35 19 4 3 52 68 5 7 11 14 0 0 0 0 0 1 12 3
1 0 0 0 0 0 0 0 0 4 33 26 19 1 0 0 0 0 0 0 1 1 10 4 1 1 2 12 5 3 4 0 0 5 1 0 1 0 1 1 1 0 0
0 0 0 0 0 0 0 0 0 0 0 16 19 25 1 1 11 8 2 2 1 1 1 1 0 0 0 1 1 1 0 0 0 1 2 2 1 1 1 0 0 0 0
1 1 0 0 0 0 9 11 4 8 4 63 89 6 0 0 3 3 2 1 2 0 1 1 1 2 3 2 2 1 2 2 1 1 0 0 1 0 0 0 0 1 1
2 15 19 23 12 24 29 31 28 25 29 70 93 3 0 1 2 1 0 1 1 1 1 1 0 1 2 2 1 1 0 0 0 1 1 1 1 1 0 0 1 4 1
24 6 7 24 18 11 21 20 34 53 117 88 73 29 6 0 1 1 1 0 0 0 0 12 32 10 0 1 1 1 0 0 0 11 23 22 18 19 5 0 4 4 0
23 18 15 28 31 9 3 5 1 0 46 165 74 21 15 0 0 0 2 1 0 0 0 0 4 7 8 15 4 21 36 23 15 12 11 8 19 0 1 2 0 0 0
0 13 35 33 23 4 0 1 5 13 92 124 70 44 26 4 9 16 13 9 3 0 0 0 0 0 0 0 0 0 0 0 0 0 28 23 22 11 5 0 0 0 0
10 11 21 29 55 29 21 13 8 4 2 28 109 176 169 66 35 39 26 40 0 0 0 0 0 0 0 0 0 0 0 0 0 0 0 0 0 0 1 1 0 0 0

GFSGL_con_mlcape_102.txt.gz
CAPE
3735 3718 3654 3125 3739 3169 3657 2858 3041 1947 944 1211 1039 1271 1550 1612 1659 1718 1494 1224 1073 951 671 366 283 316 205 148 69 88 53 140 57 103 69 210 276 238 134 74 0 0 0
3893 3584 3523 3799 3666 3342 3741 3477 3053 1614 1144 1536 1843 1660 1466 1575 1664 1607 1319 1121 968 846 897 612 440 437 182 133 106 92 98 70 91 72 12 145 328 246 150 44 1 2 5
3763 3355 3115 3724 3738 3601 3504 3495 2915 1810 1752 1839 2040 1821 1331 1210 1194 1068 1369 1142 919 843 764 752 543 617 585 406 243 182 95 130 317 233 215 292 97 142 18 0 0 0 1
3068 2577 2626 3492 3694 3775 3612 3540 2676 1775 1746 1831 2108 1654 1381 1086 1180 1024 1172 1114 843 816 775 838 722 450 427 592 470 399 537 508 577 492 380 204 42 1 0 0 0 1 0
2597 2270 2239 2416 2727 3151 3520 2883 2150 1709 1874 2212 1851 1448 1299 1110 861 999 899 790 823 777 801 765 632 664 511 391 303 331 276 338 388 451 342 217 24 0 0 0 0 1 1
402 38 0 0 0 1 1737 1746 1427 1885 2093 2023 1544 1364 1208 966 557 617 641 733 721 950 822 657 631 630 509 411 410 333 377 265 233 191 217 194 8 1 0 0 2 2 3
112 0 0 0 0 0 2 653 884 1364 2274 1818 1516 1355 1200 1020 130 200 255 417 637 763 743 607 581 361 374 285 183 150 130 99 26 223 275 268 121 9 0 0 3 1 1
73 82 0 0 0 4 0 0 695 1214 1986 1806 1579 1433 1229 1109 265 104 78 106 103 368 506 681 325 162 489 528 419 230 103 33 0 0 69 257 286 288 3 0 0 0 1
110 162 163 64 95 50 0 179 860 1279 1215 1666 1780 1652 1432 1356 380 229 144 163 87 190 341 377 414 470 598 109 210 341 207 179 33 1 0 54 61 166 64 0 2 3 4
39 5 50 48 183 99 202 734 675 634 792 1188 1613 1870 1506 1557 496 129 250 543 307 278 331 353 248 117 225 225 227 198 152 77 194 29 23 0 0 0 0 0 0 1 2
23 0 0 0 0 0 0 0 14 36 264 499 900 1341 1241 1343 1121 407 346 766 812 819 672 564 604 219 17 0 16 205 169 96 157 137 63 53 2 0 0 4 2 0 1
1 3 0 0 0 0 0 0 0 0 0 0 77 633 946 924 824 559 523 502 574 500 468 428 363 38 2 0 0 12 104 91 26 169 138 193 92 25 6 0 6 0 1
0 0 0 0 0 0 0 0 1 1 0 0 26 88 161 133 85 67 14 7 30 44 124 78 0 0 0 0 0 1 0 2 32 1 54 118 99 42 34 17 0 0 45
0 0 0 0 5 44 9 0 11 0 0 18 30 16 20 10 0 0 0 0 0 0 2 1 6 5 0 0 0 0 0 0 0 20 24 116 157 156 68 46 53 42 27
19 0 0 0 0 8 45 18 8 15 0 0 2 0 1 0 0 0 0 0 0 0 0 0 0 2 0 0 0 0 2 2 1 34 69 58 66 81 124 151 116 141 91
1 15 0 0 0 0 3 73 12 2 0 0 0 0 0 0 0 0 0 0 0 0 0 0 0 0 0 0 0 1 1 1 5 24 15 4 48 88 99 84 106 114 106
7 7 0 0 10 6 0 0 18 11 0 0 0 0 0 0 0 0 0 0 0 0 0 2 3 1 2 1 0 3 0 1 3 21 1 14 19 29 46 62 64 71 41
11 2 3 5 7 2 2 2 0 0 0 23 4 0 0 0 0 0 0 0 1 1 0 1 7 6 13 6 5 1 5 0 1 1 0 0 3 6 7 0 0 0 29
0 0 0 0 0 0 0 0 0 0 4 45 61 0 0 0 0 0 0 2 2 2 2 2 3 1 1 0 2 5 35 16 7 5 0 0 0 0 0 0 0 0 0
2 1 0 0 0 0 0 0 4 6 0 0 91 82 32 1 7 1 0 1 1 1 1 1 1 1 1 1 0 5 0 0 0 0 1 1 2 1 1 1 0 0 0
0 0 1 2 5 12 15 13 2 6 16 89 76 13 0 8 0 0 0 0 0 0 0 0 0 1 1 1 1 2 2 2 1 1 1 1 0 0 0 0 0 0 0
0 2 1 0 0 5 1 10 15 30 119 116 63 2 0 0 0 2 0 2 0 0 2 1 1 0 1 0 0 0 1 1 1 0 1 1 0 0 1 0 0 0 0
0 3 0 1 0 6 15 10 25 19 71 133 69 32 7 0 0 1 0 1 0 0 0 11 4 0 0 0 0 0 0 0 0 2 0 0 2 3 8 8 9 5 4
4 13 12 0 16 11 15 10 4 0 0 15 136 63 12 0 0 0 0 2 0 0 0 0 0 1 2 4 3 4 0 15 0 0 2 2 13 5 1 4 7 2 0
10 5 0 11 16 11 11 2 2 2 52 206 168 46 12 4 2 2 2 2 4 0 0 0 0 0 0 0 0 0 0 0 0 0 9 27 14 18 24 15 2 0 0
0 7 7 32 22 31 45 46 25 43 52 171 65 18 69 30 24 21 26 40 5 0 0 0 0 0 0 0 0 0 0 0 0 0 0 5 0 0 0 0 0 0 0